sat.trackr.live / text

‹ back to catalog

STARLINK-34401

NORAD 64757 · 2025-147C

PAYLOAD ACTIVE UNKNOWN

§ Identity

Operator
Country
US
Launch date
2025-07-08
Launch site
AFETR
Launch vehicle
Mass (kg)
RCS (m²)

Purposes: comms

External: N2YO · Heavens-Above · Gunter

§ Orbital elements

Epoch: 2026-09-20T21:01:57.828864Z

Period
93.85 min
Inclination
53.1597°
Eccentricity
0.0000824
Mean motion
15.34412975 rev/d
Perigee alt
462.1 km
Apogee alt
463.2 km
Semi-major
6,840.8 km
B*
6.6058e-4
RAAN
52.0260°
Arg perigee
69.9848°
Mean anomaly
290.1243°
Rev number
6,862

§ Raw data

STARLINK-344011 64757U 25147C   26263.87636376  .00022017  00000+0  66058-3 0  99922 64757  53.1597  52.0260 0000824  69.9848 290.1243 15.34412975 68628

JSON: /api/v1/satellites/64757 · /tle

For live sub-satellite position, see the globe view (requires WebGL).

§ Visibility from observer

Set your observer location to see the next 7 days of passes ≥ 10°. The values pass through the URL so the page stays shareable.

No JS? Fill the form by hand. The geolocation button needs JavaScript.